TimeIST,TemperatureF,Dew PointF,Humidity,Sea Level PressureIn,VisibilityMPH,Wind Direction,Wind SpeedMPH,Gust SpeedMPH,PrecipitationIn,Events,Conditions,WindDirDegrees,DateUTC
12:40 AM,80.6,41.0,24,29.89,1.6,Calm,Calm,-,N/A,,Smoke,0,2013-03-04 19:10:00
1:10 AM,78.8,42.8,28,29.89,1.4,Calm,Calm,-,N/A,,Smoke,0,2013-03-04 19:40:00
1:40 AM,77.0,42.8,29,29.86,1.4,Calm,Calm,-,N/A,,Smoke,0,2013-03-04 20:10:00
2:10 AM,75.2,44.6,34,29.86,1.4,Calm,Calm,-,N/A,,Smoke,0,2013-03-04 20:40:00
2:30 AM,65,47,40,29.86,1,Calm,Calm,,,,Smoke,,2013-03-04 21:00:00
2:40 AM,75.2,44.6,34,29.86,1.4,Calm,Calm,-,N/A,,Smoke,0,2013-03-04 21:10:00
3:10 AM,77.0,44.6,32,29.83,1.4,ESE,3.5,-,N/A,,Smoke,120,2013-03-04 21:40:00
3:40 AM,77.0,44.6,32,29.83,1.4,East,3.5,-,N/A,,Smoke,90,2013-03-04 22:10:00
4:10 AM,77.0,42.8,29,29.83,1.4,East,3.5,-,N/A,,Smoke,100,2013-03-04 22:40:00
4:40 AM,75.2,42.8,31,29.83,1.4,Calm,Calm,-,N/A,,Smoke,0,2013-03-04 23:10:00
5:30 AM,64,46,40,29.84,1,Calm,Calm,,,,Smoke,,2013-03-05 00:00:00
5:40 AM,80.6,39.2,23,29.83,1.6,Calm,Calm,-,N/A,,Smoke,0,2013-03-05 00:10:00
6:10 AM,77.0,41.0,28,29.86,1.6,Calm,Calm,-,N/A,,Smoke,0,2013-03-05 00:40:00
6:40 AM,77.0,39.2,26,29.86,1.6,ESE,5.8,-,N/A,,Smoke,120,2013-03-05 01:10:00
8:30 AM,74,45,25,29.91,1,Calm,Calm,,,,Smoke,,2013-03-05 03:00:00
9:40 AM,89.6,39.2,17,29.92,2.2,ENE,6.9,-,N/A,,Smoke,60,2013-03-05 04:10:00
10:10 AM,91.4,39.2,16,29.92,2.2,ENE,6.9,-,N/A,,Smoke,60,2013-03-05 04:40:00
11:10 AM,95.0,39.2,14,29.92,2.2,South,3.5,-,N/A,,Smoke,170,2013-03-05 05:40:00
11:30 AM,97,42,8,29.92,2,North,4.6,,,,,0,2013-03-05 06:00:00
11:40 AM,96.8,39.2,14,29.92,2.5,East,5.8,-,N/A,,Smoke,80,2013-03-05 06:10:00
12:10 PM,98.6,42.8,15,29.89,2.5,East,8.1,-,N/A,,Smoke,100,2013-03-05 06:40:00
12:40 PM,98.6,42.8,15,29.89,2.5,ESE,5.8,-,N/A,,Smoke,110,2013-03-05 07:10:00
1:40 PM,100.4,46.4,16,29.83,3.1,West,10.4,-,N/A,,Smoke,270,2013-03-05 08:10:00
2:10 PM,98.6,39.2,13,29.83,3.1,West,12.7,-,N/A,,Smoke,270,2013-03-05 08:40:00
2:30 PM,100,41,7,29.83,1,SW,6.9,,,,Smoke,230,2013-03-05 09:00:00
2:40 PM,98.6,37.4,12,29.83,3.1,West,10.4,-,N/A,,Smoke,270,2013-03-05 09:10:00
3:10 PM,96.8,41.0,15,29.80,3.1,West,12.7,-,N/A,,Smoke,260,2013-03-05 09:40:00
3:40 PM,96.8,44.6,17,29.80,3.1,West,11.5,-,N/A,,Smoke,270,2013-03-05 10:10:00
4:10 PM,95.0,42.8,16,29.80,3.1,WNW,9.2,-,N/A,,Smoke,300,2013-03-05 10:40:00
4:40 PM,95.0,42.8,16,29.80,3.1,NW,3.5,-,N/A,,Smoke,320,2013-03-05 11:10:00
5:10 PM,93.2,51.8,24,29.80,3.1,NW,6.9,-,N/A,,Smoke,310,2013-03-05 11:40:00
5:30 PM,93,47,12,29.80,2,North,4.6,,,,,0,2013-03-05 12:00:00
5:40 PM,93.2,48.2,21,29.80,3.1,NW,8.1,-,N/A,,Smoke,320,2013-03-05 12:10:00
6:10 PM,91.4,48.2,23,29.80,2.8,NNW,6.9,-,N/A,,Smoke,330,2013-03-05 12:40:00
6:40 PM,89.6,44.6,21,29.83,2.5,NW,4.6,-,N/A,,Smoke,320,2013-03-05 13:10:00
7:10 PM,89.6,41.0,18,29.83,2.5,NNW,6.9,-,N/A,,Smoke,330,2013-03-05 13:40:00
7:40 PM,89.6,39.2,17,29.83,2.5,North,4.6,-,N/A,,Smoke,350,2013-03-05 14:10:00
8:10 PM,89.6,39.2,17,29.86,2.5,NNW,4.6,-,N/A,,Smoke,340,2013-03-05 14:40:00
8:30 PM,85,44,15,29.89,1,North,4.6,,,,Smoke,0,2013-03-05 15:00:00
8:40 PM,89.6,39.2,17,29.86,2.5,Variable,2.3,-,N/A,,Smoke,0,2013-03-05 15:10:00
9:40 PM,89.6,44.6,21,29.89,1.6,NNW,3.5,-,N/A,,Smoke,330,2013-03-05 16:10:00
10:40 PM,86.0,44.6,23,29.89,1.6,North,3.5,-,N/A,,Smoke,10,2013-03-05 17:10:00
11:10 PM,87.8,44.6,22,29.89,1.5,North,3.5,-,N/A,,Smoke,360,2013-03-05 17:40:00
11:30 PM,72,52,38,29.90,1,Calm,Calm,,,,Smoke,,2013-03-05 18:00:00